Overview Statistics Trail Chart Weather Telemetry Raw packets
 

This is the latest recevied weather packets stored in our database for station/object SV9TNF-56. If no packets are shown the sender has not sent any weather packets the latest 10 day(s).

<< 95 96 97 98 99 100 101 >>
Time Temp. Humidity Pressure Rain* Wind** Luminosity Snow
1787950292 25.56° C 67% 1019 hPa 0 mm 7.6 m/s, 228° - -
1787949992 25.56° C 66% 1019 hPa 0 mm 5.81 m/s, 150° - -
1787949692 25.56° C 66% 1018.6 hPa 0 mm 8.49 m/s, 172° - -
1787949392 26.11° C 65% 1019 hPa 0 mm 8.49 m/s, 222° - -
1787949091 26.11° C 63% 1019 hPa 0 mm 6.26 m/s, 237° - -
1787948791 26.11° C 62% 1019 hPa 0 mm 6.71 m/s, 149° - -
1787948491 26.11° C 60% 1019 hPa 0 mm 8.94 m/s, 217° - -
1787948191 26.67° C 60% 1019 hPa 0 mm 1.79 m/s, 142° - -
1787947891 26.67° C 59% 1019 hPa 0 mm 7.6 m/s, 202° - -
1787947591 26.67° C 59% 1019 hPa 0 mm 8.49 m/s, 150° - -
1787947291 26.67° C 59% 1019 hPa 0 mm 3.13 m/s, 174° - -
1787946991 26.67° C 58% 1019 hPa 0 mm 6.26 m/s, 160° - -
1787946691 26.67° C 57% 1019 hPa 0 mm 6.26 m/s, 174° - -
1787946391 26.67° C 57% 1019 hPa 0 mm 6.26 m/s, 142° - -
1787946091 26.67° C 57% 1019 hPa 0 mm 6.26 m/s, 216° - -
1787945790 26.67° C 59% 1019 hPa 0 mm 9.83 m/s, 190° - -
1787945490 26.67° C 58% 1019 hPa 0 mm 5.81 m/s, 222° - -
1787945190 26.67° C 59% 1019 hPa 0 mm 4.92 m/s, 188° - -
1787944890 26.67° C 61% 1019 hPa 0 mm 8.05 m/s, 228° - -
1787944590 26.67° C 61% 1019 hPa 0 mm 2.24 m/s, 266° - -
1787944290 26.67° C 61% 1019 hPa 0 mm 12.07 m/s, 222° - -
1787943990 26.11° C 61% 1019 hPa 0 mm 12.07 m/s, 18° - -
1787943690 25.56° C 64% 1019 hPa 0 mm 1.79 m/s, 346° - -
1787943390 25.56° C 69% 1019 hPa 0 mm 4.92 m/s, 270° - -
1787943090 26.11° C 75% 1019 hPa 0 mm 0 m/s - -

* Rain latest hour (hover to see other rain measurements)
** Current wind speed in m/s (hover to see current wind gust speed)